K1RFS Weather Reports


time (UTC)temp
C
wind
direction
speed
KPH
gust
KPH
rain 1hr
cm
rain 24hr
cm
rain mn
cm
humidity
%
barometer
mb
20260509005601 25 293 4.8 4.8 0.00 0.00 0.00 18 1000.0
20260509005055 25 162 3.2 3.2 0.00 0.00 0.00 18 1000.4
20260509004552 25 154 3.2 3.2 0.00 0.00 0.00 17 1000.2
20260509004049 25 204 1.6 1.6 0.00 0.00 0.00 18 1000.4
20260509003548 25 24 6.4 8.0 0.00 0.00 0.00 17 1000.2
20260509003044 25 187 3.2 3.2 0.00 0.00 0.00 18 1000.4
20260509002542 26 215 4.8 4.8 0.00 0.00 0.00 18 1000.4
20260509002040 26 189 1.6 1.6 0.00 0.00 0.00 18 1000.4
20260509001537 25 185 0.0 0.0 0.00 0.00 0.00 18 1000.4
20260509001032 25 214 3.2 3.2 0.00 0.00 0.00 20 1000.4
20260509000531 25 201 3.2 3.2 0.00 0.00 0.00 18 1000.4
20260509000027 25 180 6.4 8.0 0.00 0.00 0.00 20 1000.4
20260508235525 25 214 1.6 1.6 0.00 0.00 0.00 20 1000.4
20260508235020 25 205 4.8 4.8 0.00 0.00 0.00 20 1000.5
20260508234518 25 174 1.6 3.2 0.00 0.00 0.00 20 1000.4
20260508234015 25 269 8.0 8.0 0.00 0.00 0.00 20 1000.5
20260508233515 25 174 3.2 3.2 0.00 0.00 0.00 20 1000.2
20260508233011 25 218 3.2 4.8 0.00 0.00 0.00 20 1000.4
20260508232508 26 229 3.2 4.8 0.00 0.00 0.00 19 1000.1
20260508232005 25 222 3.2 8.0 0.00 0.00 0.00 20 1000.4
20260508231503 26 213 3.2 3.2 0.00 0.00 0.00 20 1000.6
20260508231000 25 193 1.6 3.2 0.00 0.00 0.00 20 1000.4
20260508230456 25 180 1.6 3.2 0.00 0.00 0.00 20 1000.5
20260508225953 25 181 3.2 4.8 0.00 0.00 0.00 20 1000.7
20260508225450 25 329 4.8 4.8 0.00 0.00 0.00 20 1000.7
20260508224947 24 178 3.2 3.2 0.00 0.00 0.00 20 1000.7
20260508224444 25 332 9.7 12.9 0.00 0.00 0.00 20 1000.8
20260508223942 25 185 4.8 4.8 0.00 0.00 0.00 20 1001.0
20260508223440 25 157 4.8 8.0 0.00 0.00 0.00 21 1000.8
20260508222936 25 198 4.8 4.8 0.00 0.00 0.00 20 1000.9
20260508222434 25 225 6.4 9.7 0.00 0.00 0.00 20 1000.8
20260508221930 25 131 9.7 14.5 0.00 0.00 0.00 20 1000.9
20260508221426 25 184 4.8 8.0 0.00 0.00 0.00 20 1001.2
20260508220923 25 195 3.2 3.2 0.00 0.00 0.00 20 1001.2
20260508220420 25 183 3.2 4.8 0.00 0.00 0.00 21 1000.9
20260508215915 25 228 4.8 4.8 0.00 0.00 0.00 21 1001.2
20260508215413 24 206 4.8 4.8 0.00 0.00 0.00 21 1001.2
20260508214909 25 185 4.8 4.8 0.00 0.00 0.00 21 1001.2
20260508214407 24 185 9.7 12.9 0.00 0.00 0.00 20 1001.5
20260508213903 25 199 4.8 8.0 0.00 0.00 0.00 21 1001.3
20260508213400 24 179 8.0 9.7 0.00 0.00 0.00 21 1001.4
20260508212855 24 191 9.7 14.5 0.00 0.00 0.00 22 1001.6
20260508212353 24 180 4.8 8.0 0.00 0.00 0.00 21 1001.6
20260508211848 25 93 11.3 14.5 0.00 0.00 0.00 21 1001.6
20260508211344 25 196 3.2 4.8 0.00 0.00 0.00 21 1001.6
20260508210842 24 203 3.2 3.2 0.00 0.00 0.00 21 1001.5
20260508210338 24 191 8.0 11.3 0.00 0.00 0.00 21 1001.5
20260508205835 24 177 4.8 4.8 0.00 0.00 0.00 21 1001.7
20260508205332 24 153 8.0 8.0 0.00 0.00 0.00 22 1001.8
20260508204828 24 203 4.8 4.8 0.00 0.00 0.00 22 1001.8
20260508204325 24 194 1.6 1.6 0.00 0.00 0.00 21 1001.8
20260508203821 24 195 9.7 12.9 0.00 0.00 0.00 22 1001.8
20260508203317 23 179 6.4 9.7 0.00 0.00 0.00 22 1001.8
20260508202813 24 202 4.8 4.8 0.00 0.00 0.00 23 1002.0
20260508202311 23 78 9.7 12.9 0.00 0.00 0.00 22 1001.7
20260508201808 23 223 4.8 4.8 0.00 0.00 0.00 21 1002.0
20260508201305 24 216 6.4 9.7 0.00 0.00 0.00 22 1002.1
20260508200801 23 188 8.0 11.3 0.00 0.00 0.00 22 1002.0
20260508200257 23 270 6.4 9.7 0.00 0.00 0.00 23 1002.1
20260508195753 23 238 4.8 8.0 0.00 0.00 0.00 22 1002.0
20260508195250 23 157 8.0 9.7 0.00 0.00 0.00 22 1002.0
20260508194746 23 235 11.3 12.9 0.00 0.00 0.00 22 1002.0
20260508194244 23 226 9.7 16.1 0.00 0.00 0.00 22 1002.0
20260508193741 23 231 6.4 9.7 0.00 0.00 0.00 23 1002.2
20260508193237 23 231 8.0 9.7 0.00 0.00 0.00 23 1002.1
20260508192734 23 246 8.0 11.3 0.00 0.00 0.00 22 1002.1
20260508192231 23 168 8.0 9.7 0.00 0.00 0.00 23 1002.1
20260508191728 23 248 6.4 8.0 0.00 0.00 0.00 23 1002.1
20260508191225 23 186 8.0 9.7 0.00 0.00 0.00 23 1002.1
20260508190722 23 266 8.0 11.3 0.00 0.00 0.00 23 1002.2
20260508190218 23 182 4.8 4.8 0.00 0.00 0.00 21 1002.3
20260508185715 23 151 6.4 9.7 0.00 0.00 0.00 22 1002.2
20260508185213 22 159 8.0 9.7 0.00 0.00 0.00 21 1002.3
20260508184710 22 54 8.0 9.7 0.00 0.00 0.00 21 1002.5
20260508184207 23 39 9.7 12.9 0.00 0.00 0.00 20 1002.5
20260508183703 23 255 6.4 9.7 0.00 0.00 0.00 21 1002.3
20260508183159 23 271 8.0 11.3 0.00 0.00 0.00 21 1002.6
20260508182655 22 297 9.7 11.3 0.00 0.00 0.00 21 1002.5
20260508182152 23 260 8.0 9.7 0.00 0.00 0.00 22 1002.6
20260508181648 23 67 4.8 4.8 0.00 0.00 0.00 22 1002.6
20260508181145 23 269 11.3 14.5 0.00 0.00 0.00 24 1002.5
20260508180642 23 262 8.0 11.3 0.00 0.00 0.00 25 1002.5
20260508180139 23 165 4.8 8.0 0.00 0.00 0.00 24 1002.6
20260508175636 22 181 0.0 0.0 0.00 0.00 0.00 27 1002.5
20260508175132 22 190 0.0 0.0 0.00 0.00 0.00 28 1002.6
20260508174630 22 186 0.0 1.6 0.00 0.00 0.00 29 1002.8
20260508174127 21 185 1.6 1.6 0.00 0.00 0.00 30 1002.8
20260508173623 21 179 1.6 1.6 0.00 0.00 0.00 30 1002.8
20260508173119 21 187 3.2 4.8 0.00 0.00 0.00 31 1003.0
20260508172617 21 189 6.4 8.0 0.00 0.00 0.00 31 1003.0
20260508172113 21 183 4.8 4.8 0.00 0.00 0.00 31 1002.6
20260508171610 21 190 4.8 4.8 0.00 0.00 0.00 31 1002.6
20260508171106 21 132 3.2 4.8 0.00 0.00 0.00 32 1002.9
20260508170604 21 206 4.8 4.8 0.00 0.00 0.00 32 1002.8
20260508170101 21 190 1.6 1.6 0.00 0.00 0.00 32 1002.9
20260508165558 20 189 0.0 0.0 0.00 0.00 0.00 32 1002.8
20260508165055 21 186 1.6 1.6 0.00 0.00 0.00 31 1002.8
20260508164551 20 104 3.2 3.2 0.00 0.00 0.00 32 1002.9
20260508164048 20 188 1.6 1.6 0.00 0.00 0.00 31 1002.8
20260508163546 20 186 0.0 1.6 0.00 0.00 0.00 31 1002.6
20260508163042 20 183 3.2 3.2 0.00 0.00 0.00 31 1002.5
20260508162539 20 193 4.8 8.0 0.00 0.00 0.00 32 1002.5
20260508162036 20 186 0.0 0.0 0.00 0.00 0.00 31 1002.6
20260508161533 20 186 1.6 3.2 0.00 0.00 0.00 31 1002.6
20260508161030 20 185 0.0 0.0 0.00 0.00 0.00 31 1002.4
20260508160529 20 184 0.0 0.0 0.00 0.00 0.00 30 1002.4
20260508160025 19 184 0.0 0.0 0.00 0.00 0.00 31 1002.4
20260508155522 19 185 0.0 0.0 0.00 0.00 0.00 34 1002.5
20260508155019 19 188 1.6 1.6 0.00 0.00 0.00 33 1002.4
20260508154517 19 188 0.0 0.0 0.00 0.00 0.00 34 1002.3
20260508154013 18 188 0.0 0.0 0.00 0.00 0.00 35 1002.5
20260508153510 18 185 1.6 1.6 0.00 0.00 0.00 36 1002.3
20260508153006 18 183 0.0 0.0 0.00 0.00 0.00 36 1002.6
20260508152503 18 184 0.0 0.0 0.00 0.00 0.00 36 1002.5
20260508151959 18 184 0.0 0.0 0.00 0.00 0.00 38 1002.4
20260508151456 17 185 1.6 1.6 0.00 0.00 0.00 38 1002.3
20260508150952 17 185 0.0 0.0 0.00 0.00 0.00 38 1002.3
20260508150449 17 183 0.0 0.0 0.00 0.00 0.00 38 1002.1
20260508145945 17 185 0.0 0.0 0.00 0.00 0.00 39 1002.0
20260508145442 17 185 0.0 0.0 0.00 0.00 0.00 40 1002.0
20260508144938 17 185 0.0 0.0 0.00 0.00 0.00 38 1002.1
20260508144436 16 185 0.0 0.0 0.00 0.00 0.00 38 1002.1
20260508143934 16 184 0.0 0.0 0.00 0.00 0.00 37 1002.2
20260508143431 16 185 0.0 1.6 0.00 0.00 0.00 37 1001.8
20260508142927 16 184 0.0 0.0 0.00 0.00 0.00 38 1002.1
20260508142425 15 184 0.0 0.0 0.00 0.00 0.00 40 1002.1
20260508141921 15 184 0.0 0.0 0.00 0.00 0.00 42 1002.1
20260508141417 15 184 0.0 0.0 0.00 0.00 0.00 41 1002.1
20260508140915 15 184 0.0 0.0 0.00 0.00 0.00 42 1001.8
20260508140412 14 183 0.0 1.6 0.00 0.00 0.00 42 1001.8
20260508135907 13 183 0.0 0.0 0.00 0.00 0.00 47 1002.0
20260508135405 13 180 0.0 0.0 0.00 0.00 0.00 47 1001.8
20260508134901 12 183 0.0 0.0 0.00 0.00 0.00 48 1002.0
20260508134357 12 184 0.0 0.0 0.00 0.00 0.00 48 1001.6
20260508133854 11 185 0.0 0.0 0.00 0.00 0.00 49 1001.7
20260508133352 11 183 0.0 0.0 0.00 0.00 0.00 50 1001.7
20260508132849 11 184 0.0 0.0 0.00 0.00 0.00 50 1001.5
20260508132347 11 182 1.6 1.6 0.00 0.00 0.00 51 1001.6
20260508131843 10 183 0.0 0.0 0.00 0.00 0.00 52 1001.5
20260508131338 10 184 0.0 1.6 0.00 0.00 0.00 52 1001.4
20260508130835 10 182 0.0 0.0 0.00 0.00 0.00 52 1001.5
20260508130332 10 186 0.0 0.0 0.00 0.00 0.00 51 1001.5
20260508125829 10 180 0.0 0.0 0.00 0.00 0.00 49 1001.5
20260508125325 10 183 0.0 0.0 0.00 0.00 0.00 49 1001.4
20260508124823 10 187 0.0 0.0 0.00 0.00 0.00 49 1001.4
20260508124319 10 184 0.0 1.6 0.00 0.00 0.00 50 1001.3
20260508123818 10 184 0.0 0.0 0.00 0.00 0.00 51 1001.2
20260508123316 10 183 1.6 1.6 0.00 0.00 0.00 51 1001.3
20260508122812 10 180 0.0 1.6 0.00 0.00 0.00 51 1000.9
20260508122309 10 177 0.0 1.6 0.00 0.00 0.00 52 1001.2
20260508121806 10 183 0.0 0.0 0.00 0.00 0.00 53 1001.2
20260508121305 10 179 0.0 0.0 0.00 0.00 0.00 53 1001.2
20260508120802 10 174 1.6 1.6 0.00 0.00 0.00 53 1001.0
20260508120300 10 184 1.6 1.6 0.00 0.00 0.00 52 1001.0
20260508115757 10 172 1.6 1.6 0.00 0.00 0.00 51 1000.8
20260508115254 11 183 0.0 0.0 0.00 0.00 0.00 50 1000.9
20260508114750 11 180 1.6 1.6 0.00 0.00 0.00 49 1001.2
20260508114247 11 186 1.6 1.6 0.00 0.00 0.00 49 1000.7
20260508113744 11 184 0.0 1.6 0.00 0.00 0.00 48 1000.9
20260508113243 11 186 0.0 1.6 0.00 0.00 0.00 48 1001.0
20260508112738 11 184 0.0 0.0 0.00 0.00 0.00 48 1000.7
20260508112235 11 186 1.6 1.6 0.00 0.00 0.00 48 1000.8
20260508111731 11 182 0.0 0.0 0.00 0.00 0.00 49 1000.9
20260508111229 11 185 0.0 0.0 0.00 0.00 0.00 50 1000.7
20260508110727 11 184 0.0 0.0 0.00 0.00 0.00 50 1000.8
20260508110224 10 186 0.0 0.0 0.00 0.00 0.00 50 1000.9
20260508105724 11 185 0.0 0.0 0.00 0.00 0.00 49 1000.7
20260508105221 11 182 0.0 0.0 0.00 0.00 0.00 48 1000.8
20260508104718 11 181 0.0 0.0 0.00 0.00 0.00 49 1000.8
20260508104215 11 183 0.0 1.6 0.00 0.00 0.00 48 1000.7
20260508103712 11 184 0.0 0.0 0.00 0.00 0.00 48 1000.7
20260508103209 11 181 0.0 0.0 0.00 0.00 0.00 49 1000.7
20260508102706 11 182 0.0 0.0 0.00 0.00 0.00 49 1000.9
20260508102205 11 183 0.0 0.0 0.00 0.00 0.00 48 1000.7
20260508101701 11 182 0.0 1.6 0.00 0.00 0.00 46 1000.7
20260508101159 11 183 0.0 0.0 0.00 0.00 0.00 46 1000.4
20260508100656 11 185 0.0 0.0 0.00 0.00 0.00 47 1000.5
20260508100154 11 182 0.0 0.0 0.00 0.00 0.00 45 1000.5
20260508095650 11 180 0.0 0.0 0.00 0.00 0.00 45 1000.4
20260508095148 11 185 0.0 0.0 0.00 0.00 0.00 46 1000.5
20260508094644 11 188 0.0 1.6 0.00 0.00 0.00 46 1000.2
20260508094141 10 182 0.0 0.0 0.00 0.00 0.00 48 1000.5
20260508093639 10 181 0.0 1.6 0.00 0.00 0.00 49 1000.5
20260508093136 10 194 1.6 1.6 0.00 0.00 0.00 49 1000.5
20260508092633 10 183 0.0 1.6 0.00 0.00 0.00 49 1000.4
20260508092132 10 183 0.0 0.0 0.00 0.00 0.00 49 1000.5
20260508091628 10 183 0.0 0.0 0.00 0.00 0.00 50 1000.5
20260508091125 10 184 0.0 1.6 0.00 0.00 0.00 50 1000.5
20260508090624 10 182 0.0 0.0 0.00 0.00 0.00 49 1000.5
20260508090121 10 183 0.0 0.0 0.00 0.00 0.00 49 1000.2
20260508085616 10 182 1.6 1.6 0.00 0.00 0.00 49 1000.2
20260508085114 10 182 1.6 1.6 0.00 0.00 0.00 51 1000.4
20260508084610 11 185 1.6 1.6 0.00 0.00 0.00 50 1000.5
20260508084108 12 184 0.0 0.0 0.00 0.00 0.00 44 1000.5
20260508083604 11 179 0.0 0.0 0.00 0.00 0.00 47 1000.5
20260508083102 11 184 0.0 0.0 0.00 0.00 0.00 48 1000.4
20260508082557 11 181 0.0 0.0 0.00 0.00 0.00 49 1000.5
20260508082055 11 182 0.0 1.6 0.00 0.00 0.00 48 1000.5
20260508081552 11 182 0.0 0.0 0.00 0.00 0.00 46 1000.4
20260508081048 12 181 0.0 0.0 0.00 0.00 0.00 46 1000.4
20260508080546 12 184 0.0 0.0 0.00 0.00 0.00 46 1000.2
20260508080043 12 172 1.6 1.6 0.00 0.00 0.00 45 1000.4
20260508075539 12 184 0.0 0.0 0.00 0.00 0.00 46 1000.4
20260508075037 12 182 0.0 0.0 0.00 0.00 0.00 45 1000.2
20260508074535 12 174 1.6 1.6 0.00 0.00 0.00 46 1000.5
20260508074031 11 183 0.0 0.0 0.00 0.00 0.00 47 1000.7
20260508073529 12 182 0.0 0.0 0.00 0.00 0.00 47 1000.5
20260508073026 12 182 0.0 0.0 0.00 0.00 0.00 46 1000.5
20260508072522 11 179 0.0 0.0 0.00 0.00 0.00 47 1000.5
20260508072019 11 183 0.0 0.0 0.00 0.00 0.00 47 1000.6
20260508071517 11 183 0.0 0.0 0.00 0.00 0.00 47 1000.5
20260508071015 11 183 0.0 1.6 0.00 0.00 0.00 48 1000.4
20260508070512 11 182 0.0 0.0 0.00 0.00 0.00 48 1000.6
20260508070010 12 185 0.0 0.0 0.00 0.00 0.00 47 1000.4
20260508065508 12 183 0.0 0.0 0.00 0.00 0.00 46 1000.2
20260508065006 13 183 0.0 0.0 0.00 0.00 0.00 44 1000.4
20260508064503 13 183 0.0 0.0 0.00 0.00 0.00 43 1000.4
20260508064000 14 183 0.0 0.0 0.00 0.00 0.00 40 1000.1
20260508063458 14 186 0.0 0.0 0.00 0.00 0.00 39 1000.4
20260508062955 15 184 0.0 1.6 0.00 0.00 0.00 39 1000.4
20260508062453 15 214 4.8 4.8 0.00 0.00 0.00 40 1000.6
20260508061949 15 206 1.6 1.6 0.00 0.00 0.00 38 1000.1
20260508061448 13 187 1.6 1.6 0.00 0.00 0.00 41 1000.1
20260508060943 13 179 1.6 1.6 0.00 0.00 0.00 43 1000.0
20260508060441 14 126 1.6 1.6 0.00 0.00 0.00 42 1000.1
20260508055937 14 176 0.0 1.6 0.00 0.00 0.00 41 1000.2
20260508055434 15 170 1.6 1.6 0.00 0.00 0.00 40 1000.0
20260508054930 15 171 3.2 4.8 0.00 0.00 0.00 40 1000.0
20260508054427 14 176 1.6 1.6 0.00 0.00 0.00 40 999.9
20260508053919 14 181 3.2 3.2 0.00 0.00 0.00 40 1000.0
20260508053416 15 173 1.6 3.2 0.00 0.00 0.00 39 999.9
20260508052913 14 184 1.6 1.6 0.00 0.00 0.00 40 1000.0
20260508052411 14 274 1.6 3.2 0.00 0.00 0.00 40 999.9
20260508051906 15 159 3.2 3.2 0.00 0.00 0.00 40 999.9
20260508051402 15 198 1.6 3.2 0.00 0.00 0.00 40 999.9
20260508050853 15 165 1.6 1.6 0.00 0.00 0.00 39 999.8
20260508050350 15 185 1.6 3.2 0.00 0.00 0.00 38 999.9
20260508045846 15 177 0.0 1.6 0.00 0.00 0.00 38 1000.0
20260508045344 15 179 0.0 1.6 0.00 0.00 0.00 38 1000.0
20260508044841 15 186 0.0 1.6 0.00 0.00 0.00 39 999.8
20260508044337 15 167 0.0 1.6 0.00 0.00 0.00 39 999.9
20260508043833 15 158 1.6 1.6 0.00 0.00 0.00 39 1000.0
20260508043330 15 182 0.0 1.6 0.00 0.00 0.00 38 999.9
20260508042827 15 183 0.0 1.6 0.00 0.00 0.00 38 999.9
20260508042325 15 186 1.6 1.6 0.00 0.00 0.00 38 1000.0
20260508041821 15 184 1.6 1.6 0.00 0.00 0.00 38 1000.0
20260508041318 15 184 0.0 1.6 0.00 0.00 0.00 38 999.9
20260508040814 15 181 0.0 1.6 0.00 0.00 0.00 38 1000.1
20260508040312 15 176 1.6 1.6 0.00 0.00 0.00 38 1000.0
20260508035809 15 181 1.6 1.6 0.00 0.00 0.00 38 1000.1
20260508035307 15 175 1.6 1.6 0.00 0.00 0.00 39 999.9
20260508034802 15 142 1.6 1.6 0.00 0.00 0.00 39 999.8
20260508034300 15 177 1.6 1.6 0.00 0.00 0.00 39 1000.0
20260508033757 16 177 1.6 1.6 0.00 0.00 0.00 37 999.8
20260508033255 16 184 0.0 0.0 0.00 0.00 0.00 37 999.8
20260508032752 16 183 0.0 0.0 0.00 0.00 0.00 38 999.7
20260508032249 16 183 0.0 0.0 0.00 0.00 0.00 39 999.8
20260508031746 17 183 0.0 0.0 0.00 0.00 0.00 36 999.6
20260508031242 17 184 0.0 0.0 0.00 0.00 0.00 35 999.3
20260508030739 17 184 0.0 1.6 0.00 0.00 0.00 35 999.4
20260508030236 18 187 1.6 1.6 0.00 0.00 0.00 34 999.6
20260508025733 18 185 0.0 0.0 0.00 0.00 0.00 33 999.4
20260508025230 18 181 0.0 0.0 0.00 0.00 0.00 32 999.6
20260508024726 19 184 0.0 0.0 0.00 0.00 0.00 31 999.7
20260508024223 19 180 0.0 0.0 0.00 0.00 0.00 30 999.6
20260508023720 20 184 0.0 0.0 0.00 0.00 0.00 30 999.3
20260508023217 20 184 0.0 0.0 0.00 0.00 0.00 29 999.2
20260508022713 20 184 0.0 0.0 0.00 0.00 0.00 28 999.3
20260508022210 20 184 0.0 0.0 0.00 0.00 0.00 27 999.4
20260508021706 21 184 0.0 0.0 0.00 0.00 0.00 27 999.3
20260508021202 22 184 0.0 0.0 0.00 0.00 0.00 26 999.2
20260508020700 23 185 0.0 0.0 0.00 0.00 0.00 25 999.2
20260508020157 23 186 0.0 0.0 0.00 0.00 0.00 24 999.1
20260508015654 23 185 0.0 0.0 0.00 0.00 0.00 24 999.2
20260508015151 23 186 0.0 1.6 0.00 0.00 0.00 24 999.0
20260508014647 23 186 0.0 0.0 0.00 0.00 0.00 24 999.0
20260508014143 23 186 0.0 0.0 0.00 0.00 0.00 24 999.1
20260508013640 23 185 0.0 0.0 0.00 0.00 0.00 24 999.4
20260508013136 23 186 0.0 0.0 0.00 0.00 0.00 24 999.3
20260508012635 23 184 0.0 1.6 0.00 0.00 0.00 24 999.1
20260508012131 23 191 1.6 1.6 0.00 0.00 0.00 23 999.2
20260508011630 24 200 1.6 3.2 0.00 0.00 0.00 23 999.4
20260508011127 25 198 0.0 1.6 0.00 0.00 0.00 23 999.2
20260508010623 25 186 0.0 0.0 0.00 0.00 0.00 22 999.2
20260508010122 24 186 0.0 0.0 0.00 0.00 0.00 21 999.3